SBIRS GEO-2 (USA 241)

Last updated on Nov. 29, 2020, 6:16 a.m. UTC

1 39120U 13011A   20333.29501116  .00000137  00000-0  00000-0 0  9998
2 39120   1.9887 350.4679 0002134 247.7905 316.2198  1.00272365 28217
UTC
Height (km)
Latitude
Longitude
Inclination
Orbital Period
UTC large
Height (km)
Speed (km/s)
/
Latitude / Longitude
Inclination (degrees)
Orbital Period (minutes)
Azimuth
Elevation
Range (km)
Doppler Factor
iOS Compass Heading
iOS Angle

Next 30 passes for location: Hong Kong

Rise time Rise Azimuth (degrees) Set time Set Azimuth (degrees) Duration Max altitude (degrees)

No matching passes for this satellites